Regional Weather Roundup
Issued by NWS Columbia, SC

Home | Current Version | Previous Version | Text Only | Print | Product List | Glossary On
Versions: 1 2 3 4 5 6 7 8 9 10 11 12 13 14 15 16 17 18 19 20 21 22 23 24 25 26 27 28 29 30 31 32 33 34 35 36 37 38 39 40 41 42 43 44 45 46 47 48 49 50
000
ASUS42 KCAE 121010
RWRCAE
REGIONAL WEATHER ROUNDUP
NATIONAL WEATHER SERVICE COLUMBIA SC
500 AM EST TUE DEC 12 2017

NOTE: "FAIR" INDICATES FEW OR NO CLOUDS BELOW 12,000 FEET WITH NO
SIGNIFICANT WEATHER AND/OR OBSTRUCTIONS TO VISIBILITY.

NOT ALL STATIONS ARE QUALITY CONTROLLED BY THE NATIONAL
WEATHER SERVICE. USE DATA WITH CAUTION...ESPECIALLY
DEWPOINT OBSERVATIONS.

SCZ001>056-GAZ040-063>065-077-121100-
...UPSTATE SOUTH CAROLINA...

CITY           SKY/WX    TMP DP  RH WIND       PRES   REMARKS
ANDERSON       CLEAR     37  33  85 S7        29.80F WCI  32
LIBERTY        PTSUNNY   40  34  79 W5        29.77S
SPARTANBURG    PTCLDY    41  32  70 SW7       29.76F
CLEMSON        PTCLDY    41  35  79 SW8       29.78F
GREENVILLE     PTCLDY    42  32  67 W5        29.78F
GREENWOOD      CLEAR     41  35  79 SW10      29.82F
GREER          PTCLDY    40  34  79 SW8       29.78F WCI  34
ROCK HILL      PTCLDY    43  34  70 SW12      29.77F
CHESTER        MOSUNNY   41  32  70 SW5       29.79F
LAURENS        MOSUNNY   41  34  75 SW8       29.79F


...CENTRAL SOUTH CAROLINA...

CITY           SKY/WX    TMP DP  RH WIND       PRES   REMARKS
COLUMBIA APT   PTCLDY    44  37  76 W8        29.83F
COLUMBIA OWENS CLEAR     45  35  68 VRB3      29.85F
MCENTIRE ANGB  CLEAR     44  35  70 SW7       29.84F
ORANGEBURG     CLEAR     39  34  82 SW7       29.86F WCI  34
SUMTER SHAW    CLEAR     45  35  68 SW13      29.81F
NEWBERRY       MOSUNNY   43  36  75 SW10      29.84F
AIKEN          FAIR      41  34  75 SW8       29.87F
BARNWELL         N/A     43  37  81 CALM      29.88F
MANNING        FAIR      45  28  53 MISG      29.87F
CAMDEN         FAIR      43  36  75 SW9       29.81F
LANCASTER      CLOUDY    41  36  81 SW3       29.79F
WINNSBORO      MOSUNNY   45  36  70 SW9       29.80F


...EASTERN AND COASTAL SOUTH CAROLINA...

CITY           SKY/WX    TMP DP  RH WIND       PRES   REMARKS
MYRTLE BEACH   CLEAR     48  37  65 SW12      29.88F
N MYRTLE BCH   CLEAR     49  37  63 SW13      29.86F
CONWAY         FAIR      41  37  87 S6        29.86F
MARION         FAIR      43  36  75 SW8       29.84F
HARTSVILLE     FAIR      39  34  81 SW6       29.80F WCI  35
FLORENCE       CLEAR     42  36  79 SW9       29.82F
DARLINGTON     CLEAR     42  36  79 SW8       29.81F
CHARLESTON APT CLEAR     43  38  82 SW9       29.90F
MOUNT PLEASANT FAIR      48  37  66 SW9       29.91F
WALTERBORO     SUNNY     41  36  81 SW6       29.91F
BEAUFORT       CLEAR     45  40  82 SW8       29.92F


...EASTERN GEORGIA...

CITY           SKY/WX    TMP DP  RH WIND       PRES   REMARKS
AUGUSTA BUSH F CLEAR     46  36  68 SW10      29.86F
AUGUSTA DANIEL CLEAR     46  36  68 SW7       29.86F
THOMSON        PTCLDY    42  36  79 W7        29.90F
CLAXTON        FAIR      47  42  80 S7        29.93F
SYLVANIA       SUNNY     45  40  82 SW6       29.92F
STATESBORO     CLEAR     45  37  73 SW6       29.91F
SAVANNAH       CLEAR     43  39  86 SW7       29.94F


...SOUTHERN NORTH CAROLINA...

CITY           SKY/WX    TMP DP  RH WIND       PRES   REMARKS
CHARLOTTE      PTCLDY    42  34  73 SW7       29.76F
MONROE         CLOUDY    40  34  79 W8        29.76F WCI  34
WADESBORO      MOSUNNY   42  33  70 SW3       29.78S
RUTHERFORDTON  CLOUDY    32  32  99 CALM      29.76F
ASHEVILLE      PTCLDY    32  27  81 N13       29.74F WCI  22

$$



USA.gov is the U.S. government's official web portal to all federal, state and local government web resources and services.